Погода в Ухманах

Россия / Чувашская Республика     55°34′08″N   47°30′25″E
темп.,
°C
ветер,
м/с
пор.,
м/с
влажн.,
%
обл.,
%
осадки,
мм/ч
давл.,
гПа
погр.,
м
2 июля, сб
сб200:00+11ссв512950 0.0 1016297
03:00+10ссв4119566 0.0 1016230
06:00+13ссв5108694 0.0 1016289
09:00+18св686612 0.0 1016762
12:00+20ссв56545 0.0 10161589
15:00+21ссв46485 0.0 10151833
18:00+19ссв376672 0.0 1014335
21:00+15св3474100 0.0 101456
3 июля, вс
вс300:00+13ссв337811 0.0 101438
03:00+11с22805 0.0 101415
06:00+15ссв258019 0.0 1014181
09:00+19ссв457110 0.1 1013872
12:00+21св446461 0.8 10131305
15:00+20ссв457080 1.7 10131025
18:00+18ссв6978100 0.4 1013700
21:00+13с358889 0.4 101492
4 июля, пн
пн400:00+12с359182 0.0 101496
03:00+13ссз3785100 0.0 1014146
06:00+15ссз4108159 0.0 1014338
09:00+19ссв4665100 0.0 1014714
12:00+22ссв464964 0.0 10152212
15:00+22св57475 0.0 10142204
18:00+21ссв47645 0.0 1015319
21:00+15св34728 0.0 101662
5 июля, вт
вт500:00+13ссв227838 0.0 101711
03:00+12ссз22795 0.0 101811
06:00+16ссз237159 0.0 1018110
09:00+21ссз33615 0.0 1018571
12:00+23с23465 0.0 10181600
15:00+24сз23465 0.0 10171814
18:00+23зюз24640 0.0 1017126
21:00+17зюз22744 0.0 101716
6 июля, ср
ср600:00+15з22780 0.0 101811
03:00+14з33780 0.0 101826
06:00+18зюз23730 0.0 1018113
09:00+23зюз35625 0.0 1017480
12:00+26з455318 0.0 10171309
15:00+27з445251 0.0 10161730
18:00+24зсз257539 0.3 1016258
21:00+19з348956 1.6 101652